Location: lozzo di cadore
(46.4899°N, 12.4508°E)
Time: 01:21:17
(UTC+01:00)

ISS - Visible Passes

Search period start: 07 November 2024 00:00
Search period end: 17 November 2024 00:00
Orbit: 407 x 419 km, 51.6° (Epoch: 06 November)

Date Brightness Start Highest point End Pass type
(mag) Time Alt. Az. Time Alt. Az. Time Alt. Az.
13 Nov -1.6 18:31:28 10° S 18:32:40 16° S 18:32:40 16° S visible
14 Nov -1.5 17:42:44 10° SSE 17:44:11 12° SE 17:44:59 12° ESE visible
14 Nov -1.0 19:17:00 10° SW 19:17:49 16° SW 19:17:49 16° SW visible
15 Nov -3.2 18:27:06 10° SW 18:29:59 43° SSE 18:29:59 43° SSE visible
16 Nov -2.5 17:37:24 10° SSW 17:40:17 27° SE 17:42:02 17° E visible
16 Nov -1.3 19:13:26 10° WSW 19:14:50 23° W 19:14:50 23° W visible
